Regional Weather Roundup
Issued by NWS

Home | Current Version | Previous Version | Text Only | Print | Product List | Glossary Off
Versions: 1 2 3 4 5 6 7 8 9 10 11 12 13 14 15 16 17 18 19 20 21 22 23 24 25 26 27 28 29 30 31 32 33 34 35 36 37 38 39 40 41 42 43 44 45 46 47 48 49 50

000
ASUS45 KCYS 220510
RWRWY

WYOMING REGIONAL WEATHER ROUNDUP
NATIONAL WEATHER SERVICE CHEYENNE WY
1000 PM MST TUE NOV 21 2017

NOTE:  "FAIR" INDICATES FEW OR NO CLOUDS BELOW 12,000 FEET
WITH NO SIGNIFICANT WEATHER AND/OR OBSTRUCTIONS TO VISIBILITY.

WYZ001-220600-
YELLOWSTONE NATIONAL PARK

CITY           SKY/WX    TMP DP  RH WIND       PRES   REMARKS
LK YELLOWSTONE   N/A     34  34 100 VRB3      30.35F
W YELLOWSTONE  NOT AVBL

$$
WYZ002>013-054>058-071-098>099-220600-
NORTHERN WYOMING

CITY           SKY/WX    TMP DP  RH WIND       PRES   REMARKS
JACKSON        MIX PCPN  37  36  96 CALM      30.35S
CODY           FAIR      45  33  63 SE6       30.18R
GREYBULL       MOCLDY    36  30  79 SE3       30.19F
WORLAND        FAIR      34  31  88 SW7       30.21S WCI  28
SHERIDAN       FAIR      33  31  92 CALM      30.12F
BUFFALO        FAIR      44  18  35 S7        30.14S
GILLETTE       FAIR      41  27  57 SW14      30.12F
HULETT         FAIR      36  28  75 SW12      30.13F WCI  27
NEWCASTLE      FAIR      28  23  80 CALM      30.20F

$$
WYZ014>020-022>026-101>103-220600-
CENTRAL WYOMING

CITY           SKY/WX    TMP DP  RH WIND       PRES   REMARKS
BIG PINEY      MOCLDY    32  30  92 CALM      30.39S
PINEDALE       CLOUDY    34  32  93 SE6       30.39S WCI  29
DUBOIS         FAIR      37  32  81 NW16G24   30.26S WCI  28
LANDER         FAIR      41  30  65 W5        30.23R
RIVERTON       FAIR      38  31  76 W6        30.22F WCI  33
CASPER         MOCLDY    45  32  60 SW13      30.22S
DOUGLAS        FAIR      32  29  88 S5        30.21S WCI  27

$$
WYZ021-027>030-104>119-220600-
SOUTHERN WYOMING

CITY           SKY/WX    TMP DP  RH WIND       PRES   REMARKS
EVANSTON       FAIR      40  36  86 SW9       30.43S WCI  34
KEMMERER       FAIR      37  34  87 W5        30.42S WCI  34
FORT BRIDGER   FAIR      41  37  86 SW12      30.44F
ROCK SPRINGS   FAIR      41  34  76 W15       30.40S
DIXON          CLOUDY    35  32  88 CALM      30.46R
RAWLINS        LGT RAIN  42  34  73 W22G31    30.36R
SARATOGA       CLOUDY    37  32  81 S7        30.38S WCI  32
LARAMIE        FAIR      36  29  75 W7        30.30R WCI  30
CHEYENNE       FAIR      35  33  92 SW9       30.25S WCI  28
TORRINGTON     FAIR      32  27  81 E5        30.20R WCI  27
PINE BLUFFS    FAIR      32  32 100 MISG      30.26S

$$



USA.gov is the U.S. government's official web portal to all federal, state and local government web resources and services.